Location: Saint-Restitut
(44.3351°N, 4.7915°E)
Time: 13:10:18
(UTC+00:00)

Cosmos 1892 - Pass Details

Date: 03 February 2023
Orbit: 487 x 506 km, 82.5° (Epoch: 20 March)

Event Time Altitude Azimuth Distance (km) Brightness Sun altitude
Rises 18:04:09 0° 195° (SSW) 2,568 6.6 -13.1°
Reaches altitude 10° 18:06:16 10° 199° (SSW) 1,695 5.7 -13.4°
Maximum altitude 18:09:56 60° 280° (W) 578 3.2 -14.1°
Drops below altitude 10° 18:13:41 10° 1° (N) 1,725 5.2 -14.8°
Sets 18:15:51 0° 6° (N) 2,619 6.1 -15.1°
